Location: Bacharowice
(49.9333°N, 19.5833°E)
Time: 06:44:32
(UTC+00:00)

Cosmos 2344 - Pass Details

Date: 02 October 2021
Orbit: 1235 x 3007 km, 63.3° (Epoch: 19 October)

Event Time Altitude Azimuth Distance (km) Brightness Sun altitude
Rises 20:13:38 0° 313° (NW) 4,382 7.4 -35.6°
Reaches altitude 10° 20:16:14 10° 317° (NW) 3,520 6.7 -35.9°
Maximum altitude 20:24:51 67° 40° (NE) 1,835 4.2 -36.9°
Enters shadow 20:25:37 65° 64° (ENE) 1,886 4.2 -36.9°
